AAL2293 KPWM-KPHL

Flight info

Callsign AAL2293
Flight time 1h 16m
Altitude 36000
Route JJIMY ORW RIFLE Q439 BRIGS JIIMS4
Aircraft A321/M-SDE3FGHIRWY/LB1

Departure

Time 2026-05-07 15:50
Airport Portland International Jetport (KPWM)

Arrival

Time 2026-05-07 17:06
Airport Philadelphia International Airport (KPHL)
Time Latitude Longitude Altitude Speed Heading
2026-05-07 15:20 43.64706 -70.31253 63 ft 0 kts 50°
2026-05-07 15:38 43.64700 -70.31262 69 ft 4 kts 50°
2026-05-07 15:38 43.64683 -70.31290 62 ft 4 kts 61°
2026-05-07 15:39 43.64676 -70.31323 66 ft 4 kts 104°
2026-05-07 15:39 43.64685 -70.31346 65 ft 1 kts 140°
2026-05-07 15:39 43.64688 -70.31349 62 ft 0 kts 140°
2026-05-07 15:45 43.64687 -70.31347 62 ft 1 kts 140°
2026-05-07 15:45 43.64674 -70.31332 71 ft 4 kts 140°
2026-05-07 15:45 43.64648 -70.31303 70 ft 6 kts 140°
2026-05-07 15:46 43.64598 -70.31133 65 ft 15 kts 96°
2026-05-07 15:46 43.64589 -70.30983 59 ft 17 kts 95°
2026-05-07 15:46 43.64578 -70.30813 61 ft 19 kts 95°
2026-05-07 15:47 43.64566 -70.30629 58 ft 20 kts 95°
2026-05-07 15:47 43.64560 -70.30418 58 ft 23 kts 78°
2026-05-07 15:47 43.64587 -70.30213 58 ft 21 kts 96°
2026-05-07 15:47 43.64573 -70.30011 55 ft 19 kts 95°
2026-05-07 15:48 43.64525 -70.29917 53 ft 10 kts 168°
2026-05-07 15:48 43.64507 -70.29915 55 ft 0 kts 175°
2026-05-07 15:48 43.64505 -70.29914 55 ft 1 kts 175°
2026-05-07 15:48 43.64478 -70.29913 55 ft 7 kts 179°
2026-05-07 15:49 43.64422 -70.29929 55 ft 9 kts 236°
2026-05-07 15:49 43.64412 -70.30031 54 ft 19 kts 274°
2026-05-07 15:49 43.64449 -70.30578 63 ft 93 kts 276°
2026-05-07 15:49 43.64530 -70.31767 83 ft 152 kts 275°
2026-05-07 15:50 43.64630 -70.33263 664 ft 154 kts 276°
2026-05-07 15:50 43.64688 -70.34746 1323 ft 156 kts 272°
2026-05-07 15:50 43.64734 -70.36247 1963 ft 157 kts 274°
2026-05-07 15:50 43.64790 -70.37828 2285 ft 175 kts 272°
2026-05-07 15:51 43.64860 -70.39608 2511 ft 196 kts 272°
2026-05-07 15:51 43.64939 -70.41605 2666 ft 220 kts 272°
2026-05-07 15:51 43.64988 -70.43843 2861 ft 246 kts 263°
2026-05-07 15:51 43.64322 -70.46038 3451 ft 256 kts 229°
2026-05-07 15:52 43.62937 -70.47553 4230 ft 260 kts 216°
2026-05-07 15:52 43.61431 -70.48932 5035 ft 262 kts 215°
2026-05-07 15:52 43.59894 -70.50312 5832 ft 264 kts 215°
2026-05-07 15:52 43.58348 -70.51699 6613 ft 266 kts 216°
2026-05-07 15:53 43.56792 -70.53105 7397 ft 268 kts 216°
2026-05-07 15:53 43.55227 -70.54525 8173 ft 270 kts 216°
2026-05-07 15:53 43.53656 -70.55958 8937 ft 272 kts 217°
2026-05-07 15:53 43.51975 -70.57200 9674 ft 278 kts 205°
2026-05-07 15:54 43.50120 -70.58003 10363 ft 285 kts 201°
2026-05-07 15:54 43.48146 -70.58823 10530 ft 307 kts 202°
2026-05-07 15:54 43.46030 -70.59707 10653 ft 329 kts 202°
2026-05-07 15:54 43.43784 -70.60640 11027 ft 341 kts 202°
2026-05-07 15:55 43.41497 -70.61578 11686 ft 344 kts 202°
2026-05-07 15:55 43.39207 -70.62507 12474 ft 343 kts 202°
2026-05-07 15:55 43.36918 -70.63426 13233 ft 342 kts 202°
2026-05-07 15:55 43.34630 -70.64345 13949 ft 343 kts 202°
2026-05-07 15:56 43.32335 -70.65272 14644 ft 344 kts 202°
2026-05-07 15:56 43.30035 -70.66208 15314 ft 346 kts 203°
2026-05-07 15:56 43.27722 -70.67152 15961 ft 347 kts 203°
2026-05-07 15:56 43.25396 -70.68099 16574 ft 350 kts 203°
2026-05-07 15:57 43.23059 -70.69050 17183 ft 352 kts 202°
2026-05-07 15:57 43.20703 -70.70006 17778 ft 354 kts 202°
2026-05-07 15:57 43.18335 -70.70967 18365 ft 356 kts 202°
2026-05-07 15:57 43.16017 -70.72111 18911 ft 353 kts 210°
2026-05-07 15:58 43.13837 -70.73650 19412 ft 353 kts 213°
2026-05-07 15:58 43.11655 -70.75216 19921 ft 355 kts 213°
2026-05-07 15:58 43.09458 -70.76791 20421 ft 357 kts 213°
2026-05-07 15:58 43.07249 -70.78374 20897 ft 360 kts 213°
2026-05-07 15:59 43.05027 -70.79969 21364 ft 362 kts 213°
2026-05-07 15:59 43.02792 -70.81569 21819 ft 364 kts 213°
2026-05-07 15:59 43.00547 -70.83178 22261 ft 365 kts 214°
2026-05-07 15:59 42.98286 -70.84794 22697 ft 367 kts 214°
2026-05-07 16:00 42.96021 -70.86413 23127 ft 369 kts 214°
2026-05-07 16:00 42.93739 -70.88039 23546 ft 371 kts 214°
2026-05-07 16:00 42.91450 -70.89672 23934 ft 373 kts 215°
2026-05-07 16:00 42.89143 -70.91316 24351 ft 374 kts 215°
2026-05-07 16:01 42.86833 -70.92958 24762 ft 375 kts 215°
2026-05-07 16:01 42.84514 -70.94605 25160 ft 376 kts 215°
2026-05-07 16:01 42.82100 -70.96070 25538 ft 384 kts 208°
2026-05-07 16:01 42.79582 -70.97299 25923 ft 385 kts 209°
2026-05-07 16:02 42.77053 -70.98533 26281 ft 387 kts 209°
2026-05-07 16:02 42.74517 -70.99770 26649 ft 388 kts 209°
2026-05-07 16:02 42.71971 -71.01008 27029 ft 389 kts 209°
2026-05-07 16:02 42.69426 -71.02245 27389 ft 389 kts 210°
2026-05-07 16:03 42.66912 -71.03466 27734 ft 390 kts 210°
2026-05-07 16:03 42.64365 -71.04702 28192 ft 387 kts 210°
2026-05-07 16:03 42.61844 -71.05922 28668 ft 384 kts 210°
2026-05-07 16:03 42.59339 -71.07137 29143 ft 380 kts 210°
2026-05-07 16:04 42.56856 -71.08337 29604 ft 377 kts 211°
2026-05-07 16:04 42.54397 -71.09527 30061 ft 374 kts 211°
2026-05-07 16:04 42.51962 -71.10702 30501 ft 370 kts 211°
2026-05-07 16:04 42.49540 -71.11871 30903 ft 368 kts 211°
2026-05-07 16:05 42.47133 -71.13036 31261 ft 368 kts 212°
2026-05-07 16:05 42.44720 -71.14205 31597 ft 367 kts 212°
2026-05-07 16:05 42.42363 -71.15466 31932 ft 358 kts 217°
2026-05-07 16:05 42.40259 -71.17147 32267 ft 346 kts 225°
2026-05-07 16:06 42.38334 -71.19077 32585 ft 345 kts 225°
2026-05-07 16:06 42.36398 -71.21005 32881 ft 345 kts 225°
2026-05-07 16:06 42.34465 -71.22917 33201 ft 344 kts 225°
2026-05-07 16:06 42.32533 -71.24822 33516 ft 343 kts 225°
2026-05-07 16:07 42.30608 -71.26721 33835 ft 342 kts 226°
2026-05-07 16:07 42.28688 -71.28618 34125 ft 341 kts 226°
2026-05-07 16:07 42.26773 -71.30507 34424 ft 341 kts 226°
2026-05-07 16:07 42.24865 -71.32393 34699 ft 340 kts 226°
2026-05-07 16:08 42.22959 -71.34283 34971 ft 340 kts 226°
2026-05-07 16:08 42.21053 -71.36174 35228 ft 340 kts 226°
2026-05-07 16:08 42.19150 -71.38056 35491 ft 339 kts 226°
2026-05-07 16:08 42.17245 -71.39933 35732 ft 340 kts 226°
2026-05-07 16:09 42.15335 -71.41814 35829 ft 340 kts 226°
2026-05-07 16:09 42.11518 -71.45572 35854 ft 339 kts 226°
2026-05-07 16:10 42.07704 -71.49313 35850 ft 339 kts 226°
2026-05-07 16:10 42.03896 -71.53047 35853 ft 338 kts 226°
2026-05-07 16:11 42.00099 -71.56772 35866 ft 338 kts 226°
2026-05-07 16:11 41.96302 -71.60494 35864 ft 338 kts 226°
2026-05-07 16:12 41.92507 -71.64203 35882 ft 337 kts 226°
2026-05-07 16:12 41.88700 -71.67903 35884 ft 337 kts 226°
2026-05-07 16:13 41.84904 -71.71608 35884 ft 337 kts 226°
2026-05-07 16:13 41.81103 -71.75299 35887 ft 337 kts 226°
2026-05-07 16:14 41.77304 -71.78989 35891 ft 337 kts 226°
2026-05-07 16:14 41.73502 -71.82671 35892 ft 337 kts 226°
2026-05-07 16:15 41.70344 -71.85729 35896 ft 337 kts 226°
2026-05-07 16:15 41.66545 -71.89407 35899 ft 337 kts 226°
2026-05-07 16:16 41.62125 -71.93674 35900 ft 337 kts 226°
2026-05-07 16:16 41.58316 -71.97343 35903 ft 337 kts 226°
2026-05-07 16:17 41.55190 -72.00491 35901 ft 331 kts 232°
2026-05-07 16:17 41.51901 -72.04756 35900 ft 329 kts 232°
2026-05-07 16:18 41.48612 -72.09018 35900 ft 330 kts 232°
2026-05-07 16:18 41.45314 -72.13270 35904 ft 330 kts 232°
2026-05-07 16:19 41.42035 -72.17502 35901 ft 330 kts 232°
2026-05-07 16:19 41.38725 -72.21753 35902 ft 331 kts 232°
2026-05-07 16:20 41.35412 -72.25999 35902 ft 331 kts 232°
2026-05-07 16:20 41.32089 -72.30247 35902 ft 331 kts 232°
2026-05-07 16:21 41.28764 -72.34492 35907 ft 331 kts 232°
2026-05-07 16:21 41.25447 -72.38736 35908 ft 331 kts 232°
2026-05-07 16:22 41.22126 -72.42976 35909 ft 332 kts 232°
2026-05-07 16:22 41.18793 -72.47223 35908 ft 332 kts 232°
2026-05-07 16:23 41.15456 -72.51468 35912 ft 333 kts 232°
2026-05-07 16:23 41.12109 -72.55713 35917 ft 333 kts 232°
2026-05-07 16:24 41.08751 -72.59959 35921 ft 334 kts 232°
2026-05-07 16:24 41.05391 -72.64213 35928 ft 334 kts 232°
2026-05-07 16:25 41.02021 -72.68471 35927 ft 335 kts 232°
2026-05-07 16:25 40.98643 -72.72726 35929 ft 336 kts 232°
2026-05-07 16:26 40.95255 -72.76982 35929 ft 336 kts 232°
2026-05-07 16:26 40.91595 -72.80893 35933 ft 352 kts 221°
2026-05-07 16:27 40.87299 -72.84040 35933 ft 354 kts 221°
2026-05-07 16:27 40.82994 -72.87212 35936 ft 354 kts 221°
2026-05-07 16:28 40.78651 -72.90399 35938 ft 355 kts 221°
2026-05-07 16:28 40.74361 -72.93538 35942 ft 355 kts 221°
2026-05-07 16:29 40.70040 -72.96699 35945 ft 355 kts 221°
2026-05-07 16:29 40.65716 -72.99861 35947 ft 355 kts 221°
2026-05-07 16:30 40.61389 -73.03016 35948 ft 355 kts 221°
2026-05-07 16:30 40.57062 -73.06162 35948 ft 356 kts 221°
2026-05-07 16:31 40.52726 -73.09303 35949 ft 356 kts 221°
2026-05-07 16:31 40.48394 -73.12447 35950 ft 356 kts 221°
2026-05-07 16:32 40.44057 -73.15586 35957 ft 356 kts 221°
2026-05-07 16:32 40.39729 -73.18726 35959 ft 355 kts 221°
2026-05-07 16:33 40.35398 -73.21853 35959 ft 355 kts 221°
2026-05-07 16:33 40.31060 -73.24966 35960 ft 355 kts 221°
2026-05-07 16:34 40.26730 -73.28079 35959 ft 355 kts 221°
2026-05-07 16:34 40.22392 -73.31200 35958 ft 356 kts 221°
2026-05-07 16:35 40.18049 -73.34309 35958 ft 356 kts 221°
2026-05-07 16:35 40.13710 -73.37421 35958 ft 356 kts 221°
2026-05-07 16:36 40.09372 -73.40531 35958 ft 355 kts 221°
2026-05-07 16:36 40.05035 -73.43626 35962 ft 355 kts 221°
2026-05-07 16:37 40.00704 -73.46720 35964 ft 355 kts 221°
2026-05-07 16:37 39.96375 -73.49807 35960 ft 356 kts 221°
2026-05-07 16:38 39.92032 -73.52905 35957 ft 354 kts 224°
2026-05-07 16:38 39.90073 -73.54737 35958 ft 341 kts 232°
2026-05-07 16:38 39.88462 -73.56925 35961 ft 331 kts 238°
2026-05-07 16:39 39.85559 -73.61582 35963 ft 332 kts 238°
2026-05-07 16:39 39.82631 -73.66221 35965 ft 331 kts 238°
2026-05-07 16:40 39.79705 -73.70847 35964 ft 331 kts 238°
2026-05-07 16:40 39.76797 -73.75442 35964 ft 331 kts 238°
2026-05-07 16:41 39.73876 -73.80064 35964 ft 331 kts 238°
2026-05-07 16:41 39.70955 -73.84678 35968 ft 331 kts 238°
2026-05-07 16:42 39.68027 -73.89286 35970 ft 331 kts 238°
2026-05-07 16:42 39.65100 -73.93896 35972 ft 331 kts 238°
2026-05-07 16:43 39.62165 -73.98502 35974 ft 332 kts 238°
2026-05-07 16:43 39.59222 -74.03115 35976 ft 332 kts 238°
2026-05-07 16:44 39.56278 -74.07724 35976 ft 332 kts 238°
2026-05-07 16:44 39.53530 -74.12473 35974 ft 324 kts 248°
2026-05-07 16:45 39.52439 -74.18042 35977 ft 323 kts 265°
2026-05-07 16:45 39.52555 -74.23877 35328 ft 327 kts 267°
2026-05-07 16:45 39.52614 -74.26847 34405 ft 333 kts 267°
2026-05-07 16:46 39.52669 -74.29868 33515 ft 337 kts 266°
2026-05-07 16:46 39.52722 -74.32921 32614 ft 341 kts 266°
2026-05-07 16:46 39.52776 -74.35990 31403 ft 340 kts 266°
2026-05-07 16:46 39.52832 -74.39049 29888 ft 340 kts 265°
2026-05-07 16:47 39.52890 -74.42111 28369 ft 339 kts 265°
2026-05-07 16:47 39.52945 -74.45157 26869 ft 338 kts 265°
2026-05-07 16:47 39.52997 -74.48191 25355 ft 336 kts 265°
2026-05-07 16:47 39.53049 -74.51213 24193 ft 339 kts 265°
2026-05-07 16:48 39.53097 -74.54364 23549 ft 355 kts 266°
2026-05-07 16:48 39.53150 -74.57566 22903 ft 356 kts 266°
2026-05-07 16:48 39.53208 -74.60758 22261 ft 354 kts 266°
2026-05-07 16:48 39.53263 -74.63933 21625 ft 351 kts 266°
2026-05-07 16:49 39.53313 -74.67077 20987 ft 348 kts 266°
2026-05-07 16:49 39.53359 -74.70196 20353 ft 345 kts 266°
2026-05-07 16:49 39.53404 -74.73297 19729 ft 343 kts 267°
2026-05-07 16:49 39.53451 -74.76370 19033 ft 341 kts 267°
2026-05-07 16:50 39.53500 -74.79443 18269 ft 340 kts 267°
2026-05-07 16:50 39.53547 -74.82491 17582 ft 337 kts 268°
2026-05-07 16:50 39.53597 -74.85526 16846 ft 336 kts 268°
2026-05-07 16:50 39.53646 -74.88553 16117 ft 337 kts 268°
2026-05-07 16:51 39.53764 -74.91589 15387 ft 340 kts 274°
2026-05-07 16:51 39.54356 -74.94580 14671 ft 347 kts 285°
2026-05-07 16:51 39.55476 -74.97344 13965 ft 357 kts 297°
2026-05-07 16:51 39.57167 -74.99808 13220 ft 369 kts 311°
2026-05-07 16:52 39.59221 -75.01784 12504 ft 374 kts 317°
2026-05-07 16:52 39.61367 -75.03760 11777 ft 372 kts 317°
2026-05-07 16:52 39.63538 -75.05570 11245 ft 372 kts 326°
2026-05-07 16:52 39.65928 -75.06751 11119 ft 364 kts 338°
2026-05-07 16:53 39.68378 -75.07217 10986 ft 358 kts 351°
2026-05-07 16:53 39.70868 -75.06949 10866 ft 353 kts
2026-05-07 16:53 39.73231 -75.06132 10337 ft 353 kts
2026-05-07 16:53 39.75562 -75.06008 10059 ft 328 kts 343°
2026-05-07 16:54 39.77748 -75.06644 9924 ft 310 kts 339°
2026-05-07 16:54 39.79796 -75.07328 9808 ft 297 kts 338°
2026-05-07 16:54 39.81740 -75.07973 9668 ft 287 kts 338°
2026-05-07 16:54 39.83651 -75.08609 9412 ft 282 kts 338°
2026-05-07 16:55 39.85543 -75.09243 9091 ft 279 kts 338°
2026-05-07 16:55 39.87411 -75.09880 8771 ft 276 kts 338°
2026-05-07 16:55 39.89256 -75.10526 8425 ft 273 kts 339°
2026-05-07 16:55 39.91078 -75.11182 8081 ft 271 kts 338°
2026-05-07 16:56 39.92887 -75.11849 7733 ft 269 kts 338°
2026-05-07 16:56 39.94678 -75.12525 7405 ft 266 kts 338°
2026-05-07 16:56 39.98331 -75.12579 6768 ft 278 kts 21°
2026-05-07 16:57 39.99860 -75.10997 6432 ft 287 kts 49°
2026-05-07 16:57 40.00711 -75.08645 6096 ft 291 kts 73°
2026-05-07 16:57 40.01093 -75.06059 5798 ft 289 kts 77°
2026-05-07 16:57 40.01403 -75.03477 5486 ft 287 kts 78°
2026-05-07 16:58 40.01702 -75.00910 5158 ft 285 kts 78°
2026-05-07 16:58 40.02001 -74.98370 4858 ft 282 kts 78°
2026-05-07 16:58 40.02297 -74.95860 4551 ft 279 kts 78°
2026-05-07 16:58 40.02593 -74.93366 4247 ft 277 kts 78°
2026-05-07 16:59 40.02818 -74.90893 3937 ft 275 kts 90°
2026-05-07 16:59 40.02323 -74.88496 3635 ft 276 kts 119°
2026-05-07 16:59 40.01038 -74.86683 3388 ft 271 kts 148°
2026-05-07 16:59 39.99320 -74.85842 3256 ft 259 kts 175°
2026-05-07 17:00 39.97594 -74.86098 3090 ft 247 kts 206°
2026-05-07 17:00 39.96191 -74.87354 2990 ft 245 kts 225°
2026-05-07 17:00 39.95067 -74.88988 2991 ft 237 kts 242°
2026-05-07 17:00 39.94219 -74.90779 2996 ft 231 kts 239°
2026-05-07 17:01 39.93466 -74.92608 3000 ft 225 kts 253°
2026-05-07 17:01 39.93032 -74.94466 2991 ft 205 kts 259°
2026-05-07 17:01 39.92692 -74.96205 2987 ft 193 kts 260°
2026-05-07 17:01 39.92367 -74.97882 3016 ft 189 kts 260°
2026-05-07 17:02 39.92152 -74.98978 3000 ft 188 kts 260°
2026-05-07 17:02 39.91828 -75.00617 2985 ft 183 kts 260°
2026-05-07 17:02 39.91520 -75.02160 2970 ft 172 kts 260°
2026-05-07 17:02 39.91223 -75.03647 2830 ft 166 kts 260°
2026-05-07 17:03 39.90942 -75.05074 2661 ft 160 kts 258°
2026-05-07 17:03 39.90666 -75.06458 2450 ft 156 kts 257°
2026-05-07 17:03 39.90395 -75.07823 2237 ft 156 kts 255°
2026-05-07 17:03 39.90128 -75.09190 2027 ft 156 kts 254°
2026-05-07 17:04 39.89862 -75.10575 1816 ft 159 kts 253°
2026-05-07 17:04 39.89591 -75.11962 1610 ft 155 kts 253°
2026-05-07 17:04 39.89322 -75.13318 1399 ft 154 kts 253°
2026-05-07 17:04 39.89055 -75.14656 1205 ft 152 kts 257°
2026-05-07 17:05 39.88789 -75.15982 1002 ft 151 kts 257°
2026-05-07 17:05 39.88524 -75.17303 803 ft 151 kts 257°
2026-05-07 17:05 39.88261 -75.18621 593 ft 150 kts 256°
2026-05-07 17:05 39.87992 -75.19933 396 ft 150 kts 258°
2026-05-07 17:06 39.87734 -75.21243 220 ft 149 kts 257°
2026-05-07 17:06 39.87472 -75.22550 38 ft 148 kts 256°
2026-05-07 17:06 39.87248 -75.23684 27 ft 98 kts 255°
2026-05-07 17:06 39.87148 -75.24211 25 ft 36 kts 269°
2026-05-07 17:07 39.87188 -75.24410 28 ft 11 kts 285°
2026-05-07 17:07 39.87193 -75.24437 25 ft 1 kts 284°
2026-05-07 17:07 39.87195 -75.24451 27 ft 3 kts 283°
2026-05-07 17:07 39.87205 -75.24494 31 ft 10 kts 292°